Vacaville, CA

9:36 PM PDT on April 26, 2017 (GMT -0700)
Nut Tree

Weather History for KVCB - October, 2011

Change the Weather History Date:

Monday, October 24, 2011

  Actual Average Record
Temperature  
Mean Temperature 64 °F -  
Max Temperature 77 °F 76 °F 93 °F (1965)
Min Temperature 51 °F 47 °F 32 °F (1956)
Degree Days  
Heating Degree Days 1    
Growing Degree Days 14 (Base 50)    
Moisture  
Dew Point 52 °F    
Average Humidity 69    
Maximum Humidity 89    
Minimum Humidity 43    
Precipitation  
Precipitation 0.00 in - - ()
Sea Level Pressure  
Sea Level Pressure 29.95 in    
Wind  
Wind Speed 2 mph (SW)    
Max Wind Speed 12 mph    
Max Gust Speed -    
Visibility 10 miles    
Events      
Averages and records for this station are not official NWS values.
T = Trace of Precipitation, MM = Missing Value Source: NWS Daily Summary

Daily Weather History Graph

Daily Weather History Graph

Search for Another Location

Airport or City:

Trip Planner

Search our weather history database for the weather conditions in past years. The results will help you decide how hot, cold, wet, or windy it might be!

Date:

Astronomy

Oct. 24, 2011 Rise Set
Actual Time 7:25 AM PDT 6:17 PM PDT
Civil Twilight 6:58 AM PDT 6:44 PM PDT
Nautical Twilight 6:27 AM PDT 7:15 PM PDT
Astronomical Twilight 5:56 AM PDT 7:46 PM PDT
Moon 4:52 AM PDT (10/24) 4:45 PM PDT (10/24)
Length of Visible Light 11h 46m
Length of Day
10h 52m
Waning Crescent, 6% of the Moon is Illuminated
Oct 24
Waning Crescent
Oct 26
New
Nov 2
First Quarter
Nov 10
Full
Nov 18
Last Quarter

Hourly Weather History & Observations

Time (PDT) Temp. Dew Point Humidity Pressure Visibility Wind Dir Wind Speed Gust Speed Precip Events Conditions
12:53 AM 55.0 °F 50.0 °F 83% 29.93 in 10.0 mi Calm Calm - N/A   Clear
1:53 AM 55.0 °F 48.9 °F 80% 29.93 in 10.0 mi Calm Calm - N/A   Clear
2:53 AM 53.1 °F 48.9 °F 86% 29.93 in 10.0 mi Calm Calm - N/A   Clear
3:53 AM 53.1 °F 48.9 °F 86% 29.94 in 10.0 mi Calm Calm - N/A   Clear
4:53 AM 51.1 °F 48.0 °F 89% 29.94 in 10.0 mi WNW 3.5 mph - N/A   Clear
5:53 AM 51.1 °F 48.0 °F 89% 29.94 in 10.0 mi Calm Calm - N/A   Clear
6:53 AM 51.1 °F 48.0 °F 89% 29.95 in 10.0 mi Calm Calm - N/A   Clear
7:53 AM 52.0 °F 48.0 °F 86% 29.97 in 10.0 mi Calm Calm - N/A   Clear
8:53 AM 63.0 °F 52.0 °F 67% 29.98 in 10.0 mi Calm Calm - N/A   Clear
9:53 AM 68.0 °F 53.1 °F 59% 29.98 in 10.0 mi Calm Calm - N/A   Clear
10:53 AM 72.0 °F 53.1 °F 51% 29.98 in 10.0 mi Calm Calm - N/A   Clear
11:53 AM 73.9 °F 53.1 °F 48% 29.97 in 10.0 mi South 8.1 mph - N/A   Clear
12:53 PM 75.0 °F 54.0 °F 48% 29.96 in 10.0 mi SSW 10.4 mph - N/A   Clear
1:53 PM 77.0 °F 53.1 °F 43% 29.95 in 10.0 mi SSW 11.5 mph - N/A   Clear
2:53 PM 75.0 °F 55.0 °F 50% 29.93 in 10.0 mi SSW 8.1 mph - N/A   Clear
3:53 PM 73.9 °F 55.0 °F 52% 29.92 in 10.0 mi SSW 6.9 mph - N/A   Clear
4:53 PM 73.0 °F 55.0 °F 53% 29.91 in 10.0 mi SSW 9.2 mph - N/A   Clear
5:53 PM 70.0 °F 54.0 °F 57% 29.91 in 10.0 mi SW 6.9 mph - N/A   Clear
6:53 PM 64.9 °F 54.0 °F 68% 29.92 in 10.0 mi SW 6.9 mph - N/A   Clear
9:53 PM 59.0 °F 53.1 °F 81% 29.96 in 10.0 mi WSW 5.8 mph - N/A   Clear
10:53 PM 57.0 °F 52.0 °F 83% 29.96 in 10.0 mi WSW 5.8 mph - N/A   Clear